CZ-3C DEB, 40194

Orbit data source: Space-Track

CZ-3C DEB, 40194 is space debris in HEO originally from a launch on Fri, 24 Feb 2012 UTC launched from the Xichang Space Center, China (XSC). Debris objects in space refer to the collection of defunct objects orbiting the Earth. Examples of debris include non-operational satellites, rocket bodies, and fragments generated from explosions, collisions, or faulty payload assembly.

Loading next visibility...
Identifier
40194, 2012-008D
Orbit
HEO
Country
Flag of CNCN / PRC
Related business
Manufacturer
CALT
Mission
Spacecraft
Bus & Motor
Unknown
Mass
Unknown
Launch date (UTC)
2012-02-24 (14 years ago)
Launch vehicle
Unknown
Launch site
Xichang Space Center, China (XSC)
Object type
Payload
Rocket body
Debris
Shape & HBR
Unknown shape, 1.1 m
Radar Cross Section
Medium (>0.1 m² and <1 m²)

Expand to show TLE details & history
Last TLE update: 3 days ago

TLE from 3 days ago
0 CZ-3C DEB
1 40194U 12008D   26117.30348629 -.00000295  00000-0  00000-0 0  9998
2 40194  20.9589 352.6922 6441112  46.1473 351.6239  2.13024856 96821
Epoch: 2026-04-27T07:17Z
TLE epoch observation values (Epoch: 2026-04-27T07:17:01.215Z)
Latitude
-0.00008°
Longitude
28.12978°
Altitude
3,908.332 km
Speed
7.866 km/s
True Right ascension
23h 30m 43s
True Declination
0° 00' 00"
Sunlit
Object was in daylight at epoch
Visualization orbit readout
Latitude
Unknown
Longitude
Unknown
Altitude
Unknown
Speed
Unknown
Apparent Right ascension
Unknown
Apparent Declination
Unknown
Sunlit
N/A
Visualization observer readout
Local Sidereal Time
20:13:35
Azimuth
Unknown
Elevation
Unknown
Doppler factor
Unknown
Orbital elements
Apogee altitude
35,575.166 km
Perigee altitude
2,703.19 km
Semi-major axis
25,517.315 km
Eccentricity
0.64411
Inclination
20.9589°
RAAN
352.6922°
Arg. of periapsis
46.1473°
True anomaly
313.70811°
Mean anomaly
351.6239°
Eccentric anomaly
337.50253°
Mean motion
0.53246 °/min
Orbital period
676.1 mins
BSTAR
0
Loading maneuver chart data...
Computing Atmospheric mass density...
Loading historical data...
Loading historical data...
Loading historical data...
Loading historical data...
Loading historical data...
Loading historical data...
Loading historical data...

Documentation

Showing up to 5 results
|